Location: Theydon Bois
(51.6750°N, 0.1050°E)
Time: 11:42:38
(UTC+00:00)

Envisat - Pass Details

Date: 10 December 2019
Orbit: 764 x 766 km, 98.1° (Epoch: 18 January)

Event Time Altitude Azimuth Distance (km) Brightness Sun altitude
Rises 06:17:24 0° 19° (NNE) 3,247 6.3 -14.0°
Reaches altitude 10° 06:19:53 10° 28° (NNE) 2,315 5.6 -13.7°
Maximum altitude 06:24:39 39° 96° (E) 1,146 4.6 -13.0°
Drops below altitude 10° 06:29:22 10° 165° (SSE) 2,298 6.0 -12.3°
Sets 06:31:48 0° 173° (S) 3,219 6.6 -11.9°
